When you browse on this site, cookies collect data to enhance your experience and personalize the content and advertising you see.
Visit our Privacy Policy to learn more. By continuing to use the site, you agree to this use of cookies and data.
  • In Hungary
  • List of Countries
  • For 7 days
  • Water Temperature
  • Weather Map
  • News
  • Weather Widgets
  • user-avatar
    Login

    Hourly Weather Bolshie Shidy

    Today, 20 February, Thursday

    Time Temperature Precipitation Wind Pressure Humidity
    00:00 -2°C° 0.8 mm 5 mps 750 mmHg 98%
    01:00 -2°C° 0.8 mm 4 mps 750 mmHg 98%
    02:00 -2°C° 0.6 mm 4 mps 750 mmHg 98%
    03:00 -2°C° 0.6 mm 4 mps 750 mmHg 98%
    04:00 -1°C° 0 mm 3 mps 750 mmHg 98%
    05:00 -1°C° 0.3 mm 3 mps 750 mmHg 98%
    06:00 -1°C° 0.3 mm 3 mps 750 mmHg 98%
    07:00 -1°C° 0.3 mm 2 mps 750 mmHg 98%
    08:00 -1°C° 0.2 mm 2 mps 751 mmHg 98%
    09:00 -1°C° 0.2 mm 2 mps 751 mmHg 99%
    10:00 -1°C° 0 mm 2 mps 751 mmHg 99%
    11:00 -1°C° 0.2 mm 2 mps 751 mmHg 99%
    12:00 0°C° 0.2 mm 3 mps 751 mmHg 99%
    13:00 0°C° 0.2 mm 3 mps 751 mmHg 99%
    14:00 0°C° 0.2 mm 3 mps 751 mmHg 99%
    15:00 0°C° 0.2 mm 3 mps 752 mmHg 99%
    16:00 +1°C° 0.2 mm 2 mps 752 mmHg 99%
    17:00 -1°C° 0.2 mm 2 mps 752 mmHg 98%
    18:00 -1°C° 0.2 mm 2 mps 752 mmHg 97%
    19:00 -1°C° 0.2 mm 2 mps 752 mmHg 97%
    20:00 -2°C° 0.1 mm 2 mps 753 mmHg 96%
    21:00 -3°C° 0.1 mm 2 mps 753 mmHg 96%
    22:00 -4°C° 0.1 mm 2 mps 753 mmHg 96%
    23:00 -4°C° 0.1 mm 2 mps 753 mmHg 96%

    Tomorrow, 21 February, Friday

    Time Temperature Precipitation Wind Pressure Humidity
    00:00 -4°C° 0.1 mm 2 mps 754 mmHg 97%
    01:00 -4°C° 0.1 mm 2 mps 754 mmHg 97%
    02:00 -5°C° 0.1 mm 2 mps 754 mmHg 97%
    03:00 -3°C° 0.1 mm 1 mps 754 mmHg 97%
    04:00 -3°C° 0.1 mm 1 mps 755 mmHg 97%
    05:00 -3°C° 0.1 mm 1 mps 755 mmHg 97%
    06:00 -3°C° 0.1 mm 1 mps 755 mmHg 97%
    07:00 -3°C° 0.1 mm 1 mps 755 mmHg 97%
    08:00 -2°C° 0.1 mm 1 mps 755 mmHg 96%
    09:00 -1°C° 0.1 mm 1 mps 756 mmHg 96%
    10:00 0°C° 0.1 mm 1 mps 756 mmHg 96%
    17:00 0°C° 0 mm 1 mps 757 mmHg 94%
    18:00 0°C° 0 mm 1 mps 757 mmHg 95%
    19:00 -1°C° 0 mm 1 mps 757 mmHg 95%
    20:00 -1°C° 0 mm 1 mps 758 mmHg 96%
    21:00 -1°C° 0 mm 1 mps 758 mmHg 96%
    22:00 -2°C° 0 mm 1 mps 758 mmHg 97%
    23:00 -2°C° 0.1 mm 1 mps 758 mmHg 97%

    Day after tomorrow, 22 February, Saturday

    Time Temperature Precipitation Wind Pressure Humidity
    00:00 -3°C° 0.1 mm 1 mps 758 mmHg 97%
    01:00 -3°C° 0.1 mm 1 mps 759 mmHg 97%
    02:00 -3°C° 0.1 mm 1 mps 759 mmHg 97%
    03:00 -4°C° 0.1 mm 1 mps 759 mmHg 97%
    04:00 -4°C° 0.1 mm 1 mps 759 mmHg 97%
    05:00 -4°C° 0.1 mm 1 mps 759 mmHg 97%
    06:00 -4°C° 0.1 mm 1 mps 759 mmHg 97%
    07:00 -6°C° 0.1 mm 1 mps 760 mmHg 97%
    08:00 -4°C° 0 mm 1 mps 760 mmHg 97%
    09:00 -3°C° 0 mm 1 mps 760 mmHg 96%
    10:00 -2°C° 0 mm 1 mps 761 mmHg 95%
    11:00 -1°C° 0 mm 1 mps 761 mmHg 96%
    12:00 -1°C° 0 mm 1 mps 761 mmHg 97%
    13:00 0°C° 0 mm 1 mps 761 mmHg 98%
    14:00 0°C° 0 mm 1 mps 761 mmHg 96%
    15:00 0°C° 0 mm 1 mps 761 mmHg 95%
    16:00 0°C° 0 mm 1 mps 761 mmHg 93%
    17:00 0°C° 0 mm 1 mps 761 mmHg 94%
    18:00 -1°C° 0 mm 1 mps 761 mmHg 95%
    19:00 -1°C° 0 mm 1 mps 762 mmHg 96%
    20:00 -1°C° 0 mm 1 mps 762 mmHg 96%
    21:00 -1°C° 0 mm 1 mps 762 mmHg 96%
    22:00 -1°C° 0 mm 1 mps 762 mmHg 96%
    23:00 -2°C° 0 mm 1 mps 762 mmHg 96%

    23 February, Sunday

    Time Temperature Precipitation Wind Pressure Humidity
    00:00 -2°C° 0 mm 1 mps 762 mmHg 96%
    01:00 -2°C° 0 mm 1 mps 761 mmHg 96%
    02:00 -2°C° 0 mm 1 mps 761 mmHg 95%
    03:00 -2°C° 0 mm 1 mps 761 mmHg 95%
    04:00 -5°C° 0 mm 2 mps 761 mmHg 95%
    05:00 -5°C° 0 mm 2 mps 761 mmHg 95%
    06:00 -5°C° 0 mm 2 mps 760 mmHg 96%
    07:00 -5°C° 0 mm 2 mps 760 mmHg 96%
    08:00 -4°C° 0 mm 2 mps 759 mmHg 94%
    09:00 -5°C° 0 mm 3 mps 759 mmHg 93%
    10:00 -4°C° 0 mm 4 mps 758 mmHg 92%
    11:00 -4°C° 0 mm 4 mps 758 mmHg 91%
    12:00 -4°C° 0 mm 4 mps 757 mmHg 90%
    13:00 -3°C° 0 mm 4 mps 756 mmHg 89%
    14:00 -3°C° 0 mm 4 mps 756 mmHg 89%
    15:00 -3°C° 0 mm 4 mps 755 mmHg 88%
    16:00 -3°C° 0 mm 4 mps 755 mmHg 88%
    17:00 -4°C° 0 mm 3 mps 754 mmHg 88%
    18:00 -5°C° 0 mm 3 mps 754 mmHg 89%
    19:00 -6°C° 0 mm 3 mps 753 mmHg 90%
    20:00 -6°C° 0.1 mm 3 mps 753 mmHg 91%
    21:00 -7°C° 0.1 mm 4 mps 752 mmHg 92%
    22:00 -5°C° 0.1 mm 4 mps 752 mmHg 94%
    23:00 -5°C° 0.1 mm 4 mps 751 mmHg 92%

    24 February, Monday

    Time Temperature Precipitation Wind Pressure Humidity
    00:00 -7°C° 0.1 mm 4 mps 751 mmHg 90%
    01:00 -7°C° 0.1 mm 4 mps 750 mmHg 88%
    02:00 -6°C° 0 mm 3 mps 750 mmHg 88%
    03:00 -6°C° 0 mm 3 mps 750 mmHg 88%
    04:00 -7°C° 0 mm 3 mps 749 mmHg 88%
    05:00 -7°C° 0 mm 3 mps 749 mmHg 89%
    06:00 -6°C° 0 mm 2 mps 748 mmHg 89%
    07:00 -6°C° 0 mm 2 mps 748 mmHg 90%
    08:00 -6°C° 0.3 mm 3 mps 747 mmHg 92%
    09:00 -5°C° 0.3 mm 3 mps 747 mmHg 94%
    10:00 -4°C° 0.3 mm 4 mps 746 mmHg 96%
    11:00 -3°C° 0.5 mm 4 mps 745 mmHg 96%
    12:00 -3°C° 0.5 mm 4 mps 745 mmHg 97%
    13:00 -2°C° 0.5 mm 5 mps 744 mmHg 98%
    14:00 -2°C° 0.4 mm 5 mps 744 mmHg 97%
    15:00 -2°C° 0.4 mm 5 mps 744 mmHg 96%
    16:00 -3°C° 0.4 mm 6 mps 743 mmHg 95%
    17:00 -4°C° 0.1 mm 5 mps 743 mmHg 94%
    18:00 -4°C° 0.1 mm 5 mps 743 mmHg 93%
    19:00 -4°C° 0.1 mm 4 mps 743 mmHg 92%
    20:00 -4°C° 0.3 mm 4 mps 743 mmHg 93%
    21:00 -4°C° 0.3 mm 4 mps 743 mmHg 93%
    22:00 -5°C° 0.3 mm 5 mps 743 mmHg 94%
    23:00 -5°C° 0.1 mm 5 mps 742 mmHg 94%

    25 February, Tuesday

    Time Temperature Precipitation Wind Pressure Humidity
    00:00 -4°C° 0.1 mm 4 mps 742 mmHg 93%
    01:00 -4°C° 0.1 mm 4 mps 742 mmHg 93%
    02:00 -4°C° 0.2 mm 4 mps 742 mmHg 94%
    03:00 -3°C° 0.2 mm 4 mps 742 mmHg 95%
    04:00 -4°C° 0.2 mm 5 mps 742 mmHg 96%
    05:00 -3°C° 0.2 mm 4 mps 742 mmHg 94%
    06:00 -4°C° 0.2 mm 4 mps 742 mmHg 93%
    07:00 -4°C° 0.2 mm 4 mps 742 mmHg 92%
    08:00 -4°C° 0.1 mm 4 mps 743 mmHg 92%
    09:00 -5°C° 0.1 mm 5 mps 743 mmHg 93%
    10:00 -5°C° 0.1 mm 6 mps 744 mmHg 94%
    11:00 -4°C° 0.4 mm 6 mps 744 mmHg 94%
    12:00 -4°C° 0.4 mm 6 mps 745 mmHg 95%
    13:00 -4°C° 0.4 mm 6 mps 745 mmHg 95%
    14:00 -4°C° 0.2 mm 5 mps 746 mmHg 94%
    15:00 -4°C° 0.2 mm 5 mps 746 mmHg 94%
    16:00 -4°C° 0.2 mm 5 mps 747 mmHg 93%
    17:00 -3°C° 0.2 mm 4 mps 747 mmHg 93%
    18:00 -3°C° 0.2 mm 4 mps 748 mmHg 93%
    19:00 -3°C° 0.2 mm 4 mps 749 mmHg 93%
    20:00 -4°C° 0.1 mm 4 mps 749 mmHg 93%
    21:00 -4°C° 0.1 mm 4 mps 750 mmHg 93%
    22:00 -4°C° 0.1 mm 3 mps 750 mmHg 93%
    23:00 -4°C° 0.1 mm 3 mps 750 mmHg 93%
    Show more